Location: *
(46.0770°N, 1.6444°E)
Time: 16:10:27
(UTC+00:00)

CZ-2C R/B - Pass Details

Date: 16 September 2019
Orbit: 705 x 907 km, 98.1° (Epoch: 19 October)

Event Time Altitude Azimuth Distance (km) Brightness Sun altitude
Exits shadow 20:45:09 42° 213° (SSW) 1,127 3.7 -26.9°
Maximum altitude 20:46:31 54° 261° (W) 976 3.6 -27.1°
Drops below altitude 10° 20:51:51 10° 338° (NNW) 2,457 6.3 -27.8°
Sets 20:54:21 0° 343° (NNW) 3,426 7.2 -28.1°
